Tracking 29892 objects as of 21-Nov-2024
HD Live streaming from Space Station
objects crossing your sky now

ARIANE 5 R/B

Track ARIANE 5 R/B now!


NORAD ID: 38742
Int'l Code: 2012-043C
Perigee: 247.9 km
Apogee: 32,338.6 km
Inclination: 5.8 °
Period: 565.9 minutes
Semi major axis: 22664 km
RCS: 26.5772 m2 (large)
Launch date: August 2, 2012
Source: France (FR)
Launch site: FRENCH GUIANA (FRGUI)

Note: This is a ROCKET BODY
Your satellite tracking list
Your tracking list is empty




NASA's NSSDC Master Catalog

Two Line Element Set (TLE):
1 38742U 12043C   24325.50449010  .00009803  00000-0  19430-2 0  9992
2 38742   5.7717 270.2891 7079597 146.8405 290.0175  2.54443314108119
Source of the keplerian elements: AFSPC